Temp
28 28 28 28 29 30 31 33 35 35 37 38 39 41 43 44 45 47 49 56 60 62
27 26 27 28 29 31 32 33 35 35 35 37 38 39 41 43 45 47 49 49 58 60
25 26 27 28 28 29 31 32 32 33 34 35 36 39 40 41 45 46 48 51 51 59
24 25 26 27 27 29 30 30 31 32 33 34 35 37 39 40 42 44 47 49 51 52
23 24 24 25 27 28 28 30 31 31 31 32 35 37 37 37 40 42 44 47 50 51
21 22 23 24 25 27 27 28 29 30 30 32 34 35 37 38 39 40 43 46 48 51
20 21 22 24 25 26 27 27 29 30 31 32 33 34 36 37 38 39 42 44 47 50
20 21 23 23 24 25 26 27 29 29 31 32 33 34 34 36 37 38 39 42 46 49
18 20 21 22 23 24 25 27 28 29 30 31 33 35 37 38 37 38 39 40 43 46
17 18 19 21 22 23 24 26 27 29 30 30 31 35 36 38 37 37 38 39 43 46
16 16 18 18 20 22 25 25 26 28 29 30 33 35 37 39 38 38 38 39 41 45
16 15 16 17 18 22 23 24 26 28 29 30 32 35 37 38 37 37 37 39 41 43
16 16 16 18 19 22 23 23 26 27 29 31 32 35 37 37 37 35 37 39 40 42
17 17 18 19 21 20 21 22 23 25 28 29 32 34 36 36 36 36 37 37 39 43
MSLP
1030.07 1029.29 1028.35 1027.53 1026.79 1026.15 1025.39 1024.69 1024.01 1023.30 1022.63 1022.02 1021.26 1020.40 1019.67 1018.91 1017.88 1016.89 1016.41 1015.05 1013.71 1013.88
1029.52 1028.86 1028.14 1027.24 1026.49 1025.73 1024.98 1024.29 1023.52 1022.97 1022.22 1021.54 1020.89 1020.06 1019.22 1018.32 1017.43 1016.90 1015.91 1015.32 1013.69 1012.97
1029.28 1028.48 1027.65 1026.86 1026.12 1025.25 1024.48 1023.81 1023.13 1022.49 1021.79 1021.01 1020.26 1019.48 1018.72 1017.70 1016.86 1016.01 1015.29 1014.81 1014.09 1012.35
1028.99 1028.11 1027.34 1026.48 1025.60 1024.85 1023.97 1023.15 1022.42 1021.74 1021.03 1020.37 1019.54 1018.83 1018.12 1017.46 1016.69 1015.66 1014.74 1014.05 1013.42 1012.84
1028.76 1027.85 1026.91 1026.01 1025.10 1024.22 1023.32 1022.53 1021.66 1020.91 1020.16 1019.46 1018.63 1017.90 1017.36 1016.75 1016.13 1015.11 1014.11 1013.51 1013.00 1012.19
1028.26 1027.40 1026.43 1025.45 1024.47 1023.57 1022.56 1021.59 1020.77 1020.04 1019.14 1018.39 1017.57 1016.89 1016.25 1015.72 1015.16 1014.48 1013.66 1012.83 1011.82 1011.00
1027.72 1026.80 1025.83 1024.83 1023.76 1022.74 1021.76 1020.76 1019.74 1018.87 1018.04 1017.12 1016.46 1015.82 1015.14 1014.51 1013.90 1013.30 1012.47 1011.79 1011.04 1010.22
1027.10 1026.20 1025.09 1023.96 1022.90 1021.88 1020.81 1019.68 1018.79 1017.64 1016.62 1015.91 1015.13 1014.43 1013.93 1013.37 1012.75 1012.04 1011.29 1010.54 1009.70 1008.98
1026.48 1025.41 1024.25 1023.06 1021.99 1021.00 1019.84 1018.65 1017.53 1016.44 1015.46 1014.43 1013.67 1012.78 1012.37 1011.95 1011.23 1010.64 1010.01 1009.11 1008.39 1007.80
1025.86 1024.53 1023.41 1022.41 1021.26 1019.96 1018.76 1017.60 1016.44 1015.24 1014.27 1013.15 1012.14 1011.33 1010.65 1010.19 1009.61 1009.02 1008.34 1007.81 1007.14 1006.28
1025.22 1023.99 1022.78 1021.59 1020.29 1019.01 1017.72 1016.48 1015.32 1014.17 1013.02 1011.75 1010.47 1009.57 1008.68 1008.05 1007.50 1007.01 1006.43 1006.03 1005.65 1004.99
1024.71 1023.39 1021.94 1020.52 1019.17 1017.86 1016.59 1015.31 1014.08 1012.96 1011.68 1010.41 1008.82 1007.85 1006.74 1006.09 1005.53 1004.83 1004.22 1003.97 1003.84 1003.37
1024.19 1022.82 1021.28 1019.79 1018.33 1016.99 1015.90 1014.50 1013.15 1011.65 1010.42 1009.09 1007.45 1006.29 1005.10 1004.40 1003.54 1002.68 1002.00 1001.72 1001.43 1001.39
1023.56 1022.25 1020.73 1019.17 1017.60 1016.40 1015.02 1013.75 1012.34 1010.79 1009.13 1007.75 1006.31 1004.83 1003.73 1002.67 1001.57 1000.29 999.82 999.48 999.06 998.61
Wind_Speed
14 10 12 13 12 11 11 11 16 15 15 17 16 15 13 10 10 12 12 16 13 12
14 15 13 17 16 11 14 13 16 17 17 17 17 16 16 11 12 11 12 14 15 12
16 16 16 15 17 18 16 17 17 18 18 18 17 16 16 14 14 13 11 10 13 15
16 17 16 15 16 16 17 18 18 18 18 18 18 17 15 16 17 17 15 15 13 17
16 17 17 16 18 17 18 18 18 19 19 19 19 18 17 17 17 17 17 17 15 17
17 16 17 18 18 18 18 19 19 19 19 18 18 19 18 18 17 18 18 18 17 17
17 17 17 17 18 18 18 18 18 18 20 19 19 20 20 20 20 19 19 19 19 19
17 17 17 18 18 18 18 18 19 20 19 20 19 15 19 20 21 21 20 20 20 19
17 17 18 18 18 18 18 18 18 19 19 20 16 28 31 28 21 22 22 20 20 21
17 18 18 18 18 18 18 18 18 18 18 20 21 31 34 34 22 23 23 24 20 19
17 18 19 18 18 18 17 17 17 17 18 20 18 32 34 35 24 22 26 26 25 22
18 19 19 19 19 18 16 17 17 16 18 20 20 31 33 29 20 21 26 25 26 25
18 18 19 20 19 16 16 16 15 18 18 24 21 29 31 28 16 21 20 24 26 37
18 18 18 19 15 16 15 16 16 18 18 20 19 20 30 31 18 17 18 20 19 20
Wind_Direction
321 318 314 311 311 306 304 301 303 302 303 304 301 300 299 290 285 285 281 287 211 217
321 316 309 307 303 300 298 294 298 299 296 296 296 292 291 285 283 281 285 270 261 213
315 312 307 304 299 298 296 295 293 294 292 292 289 287 284 286 283 279 271 274 280 235
313 310 306 301 299 294 296 295 291 291 288 288 285 281 278 275 278 276 273 267 269 281
311 309 305 300 299 297 293 291 290 289 285 284 280 276 272 270 270 271 270 269 266 255
312 308 303 301 299 296 292 291 289 288 285 281 277 276 271 267 264 262 261 262 262 262
309 308 302 299 297 296 292 288 285 281 281 279 276 272 270 268 265 261 261 259 256 256
307 304 302 301 299 294 290 285 283 281 278 278 275 269 265 263 263 261 261 259 257 254
306 306 307 305 302 297 291 287 284 281 279 279 274 271 267 265 261 260 258 257 252 252
308 310 309 304 301 298 295 293 286 284 282 279 277 273 271 266 260 257 254 253 253 255
312 308 306 303 301 299 298 295 293 288 286 282 278 277 274 269 261 252 251 249 248 245
313 307 306 306 305 301 302 300 295 291 290 290 282 288 281 274 261 252 248 246 243 243
309 306 307 304 302 306 299 298 296 293 291 293 292 292 289 283 260 249 244 241 239 240
310 308 304 301 309 305 303 300 295 294 292 298 290 293 294 289 273 250 239 238 235 232